This is the latest recevied weather packets stored in our database for station/object SR5NLK-1. If no packets are shown the sender has not sent any weather packets the latest 10 day(s).
| Time | Temp. | Humidity | Pressure | Rain* | Wind** | Luminosity | Snow |
|---|---|---|---|---|---|---|---|
| 1777524312 | 6.67° C | 54% | 971 hPa | 0 mm | - | - | - |
| 1777524013 | 6.67° C | 55% | 970 hPa | 0 mm | - | - | - |
| 1777523951 | 6.67° C | 55% | 954.9 hPa | 0 mm | - | - | - |
| 1777523712 | 6.67° C | 58% | 967.7 hPa | 0 mm | - | - | - |
| 1777523412 | 6.11° C | 61% | 950.6 hPa | 0 mm | - | - | - |
| 1777523112 | 5.56° C | 65% | 967.7 hPa | 0 mm | - | - | - |
| 1777522812 | 4.44° C | 69% | 958.2 hPa | 0 mm | - | - | - |
| 1777522513 | 3.33° C | 73% | 967.7 hPa | 0 mm | - | - | - |
| 1777522213 | 2.22° C | 77% | 967.7 hPa | 0 mm | - | - | - |
| 1777521971 | 1.11° C | 79% | 980.4 hPa | 0 mm | - | - | - |
| 1777521912 | 0.56° C | 80% | 977.3 hPa | 0 mm | - | - | - |
| 1777521612 | -0.56° C | 78% | 974.1 hPa | 0 mm | - | - | - |
| 1777521313 | -1.67° C | 77% | 974.1 hPa | 0 mm | - | - | - |
| 1777521012 | -1.67° C | 77% | 986.8 hPa | 0 mm | - | - | - |
| 1777520712 | -1.67° C | 77% | 967.7 hPa | 0 mm | - | - | - |
| 1777520412 | -1.67° C | 77% | 980.4 hPa | 0 mm | - | - | - |
| 1777520113 | -1.67° C | 77% | 980.4 hPa | 0 mm | - | - | - |
| 1777519992 | -1.67° C | 77% | 974 hPa | 0 mm | - | - | - |
| 1777519813 | -1.67° C | 77% | 993.1 hPa | 0 mm | - | - | - |
| 1777519513 | -2.22° C | 77% | 974.2 hPa | 0 mm | - | - | - |
| 1777519212 | -2.22° C | 77% | 970.9 hPa | 0 mm | - | - | - |
| 1777518913 | -2.22° C | 78% | 993.2 hPa | 0 mm | - | - | - |
| 1777518613 | -1.67° C | 78% | 977.5 hPa | 0 mm | - | - | - |
| 1777518313 | -1.67° C | 78% | 986.8 hPa | 0 mm | - | - | - |
| 1777518012 | -1.67° C | 78% | 990.4 hPa | 0 mm | - | - | - |
* Rain latest hour (hover to see other rain measurements)
** Current wind speed in m/s (hover to see current wind gust speed)